TimeCST,TemperatureF,Dew PointF,Humidity,Sea Level PressureIn,VisibilityMPH,Wind Direction,Wind SpeedMPH,Gust SpeedMPH,PrecipitationIn,Events,Conditions,WindDirDegrees,DateUTC
12:15 AM,19.4,10.4,68,30.08,10.0,NW,17.3,23.0,N/A,,Overcast,310,2013-12-05 06:15:00
12:35 AM,17.6,8.6,68,30.08,10.0,WNW,19.6,-,N/A,,Overcast,300,2013-12-05 06:35:00
12:55 AM,17.6,8.6,68,30.08,10.0,NW,16.1,23.0,N/A,,Overcast,310,2013-12-05 06:55:00
1:15 AM,17.6,8.6,68,30.10,10.0,WNW,16.1,25.3,N/A,,Overcast,300,2013-12-05 07:15:00
1:35 AM,17.6,6.8,63,30.10,10.0,NW,18.4,25.3,N/A,,Overcast,320,2013-12-05 07:35:00
1:55 AM,17.6,6.8,63,30.11,10.0,NW,16.1,25.3,N/A,,Scattered Clouds,310,2013-12-05 07:55:00
2:15 AM,17.6,6.8,63,30.12,10.0,NW,13.8,-,N/A,,Mostly Cloudy,310,2013-12-05 08:15:00
2:35 AM,17.6,8.6,68,30.14,10.0,WNW,12.7,-,N/A,,Overcast,300,2013-12-05 08:35:00
2:55 AM,17.6,8.6,68,30.17,10.0,West,20.7,-,N/A,Rain,Freezing Rain,280,2013-12-05 08:55:00
3:15 AM,15.8,6.8,68,30.17,10.0,WNW,12.7,21.9,N/A,,Overcast,290,2013-12-05 09:15:00
3:35 AM,15.8,6.8,68,30.18,10.0,NW,16.1,26.5,N/A,,Mostly Cloudy,310,2013-12-05 09:35:00
3:55 AM,14.0,5.0,67,30.19,10.0,NW,15.0,-,N/A,,Partly Cloudy,310,2013-12-05 09:55:00
4:15 AM,14.0,5.0,67,30.18,10.0,NW,13.8,21.9,N/A,,Clear,310,2013-12-05 10:15:00
4:35 AM,14.0,5.0,67,30.19,10.0,WNW,12.7,21.9,N/A,,Clear,300,2013-12-05 10:35:00
4:55 AM,14.0,6.8,73,30.20,10.0,NW,13.8,20.7,N/A,,Clear,310,2013-12-05 10:55:00
5:15 AM,15.8,6.8,68,30.21,10.0,WNW,13.8,-,N/A,,Clear,300,2013-12-05 11:15:00
5:35 AM,15.8,6.8,68,30.23,10.0,WNW,10.4,-,N/A,,Clear,300,2013-12-05 11:35:00
5:55 AM,15.8,8.6,73,30.23,10.0,NW,8.1,13.8,N/A,,Scattered Clouds,310,2013-12-05 11:55:00
6:15 AM,15.8,8.6,73,30.24,10.0,WNW,10.4,-,N/A,,Partly Cloudy,300,2013-12-05 12:15:00
6:35 AM,15.8,8.6,73,30.25,10.0,NW,8.1,-,N/A,,Clear,320,2013-12-05 12:35:00
6:55 AM,15.8,8.6,73,30.26,10.0,WNW,6.9,-,N/A,,Clear,300,2013-12-05 12:55:00
7:15 AM,15.8,8.6,73,30.25,10.0,NW,9.2,-,N/A,,Clear,310,2013-12-05 13:15:00
7:35 AM,15.8,8.6,73,30.26,10.0,NW,6.9,15.0,N/A,,Clear,310,2013-12-05 13:35:00
7:55 AM,15.8,8.6,73,30.27,10.0,NW,6.9,-,N/A,,Clear,310,2013-12-05 13:55:00
8:15 AM,15.8,8.6,73,30.28,10.0,NW,10.4,-,N/A,,Clear,310,2013-12-05 14:15:00
8:35 AM,15.8,8.6,73,30.29,-9999.0,WNW,10.4,-,N/A,,Clear,300,2013-12-05 14:35:00
8:55 AM,15.8,6.8,68,30.29,10.0,NW,12.7,-,N/A,,Clear,310,2013-12-05 14:55:00
9:15 AM,12.2,3.2,67,30.30,10.0,NW,11.5,-,N/A,,Clear,320,2013-12-05 15:15:00
9:35 AM,12.2,3.2,67,30.32,10.0,NW,9.2,16.1,N/A,,Clear,320,2013-12-05 15:35:00
9:55 AM,12.2,3.2,67,30.32,10.0,NW,11.5,-,N/A,,Clear,310,2013-12-05 15:55:00
10:15 AM,14.0,5.0,67,30.33,10.0,NW,11.5,-,N/A,,Clear,320,2013-12-05 16:15:00
10:35 AM,14.0,5.0,67,30.34,10.0,NNW,12.7,-,N/A,,Clear,330,2013-12-05 16:35:00
10:55 AM,14.0,3.2,62,30.35,10.0,NNW,11.5,17.3,N/A,,Clear,330,2013-12-05 16:55:00
11:15 AM,14.0,3.2,62,30.34,10.0,NW,11.5,18.4,N/A,,Clear,310,2013-12-05 17:15:00
11:35 AM,14.0,3.2,62,30.34,10.0,NW,10.4,-,N/A,,Clear,310,2013-12-05 17:35:00
11:55 AM,14.0,3.2,62,30.32,10.0,WNW,12.7,18.4,N/A,,Clear,290,2013-12-05 17:55:00
12:15 PM,14.0,3.2,62,30.32,10.0,WNW,10.4,18.4,N/A,,Clear,300,2013-12-05 18:15:00
12:35 PM,15.8,3.2,58,30.31,10.0,NW,8.1,15.0,N/A,,Clear,310,2013-12-05 18:35:00
12:55 PM,15.8,1.4,53,30.32,10.0,WNW,10.4,17.3,N/A,,Clear,300,2013-12-05 18:55:00
1:15 PM,15.8,3.2,58,30.32,10.0,NW,10.4,16.1,N/A,,Clear,310,2013-12-05 19:15:00
1:35 PM,15.8,1.4,53,30.31,10.0,NW,12.7,-,N/A,,Clear,310,2013-12-05 19:35:00
1:55 PM,15.8,1.4,53,30.30,10.0,NW,9.2,-,N/A,,Clear,320,2013-12-05 19:55:00
2:15 PM,15.8,1.4,53,30.28,10.0,NW,12.7,-,N/A,,Clear,320,2013-12-05 20:15:00
2:35 PM,15.8,1.4,53,30.28,10.0,NW,9.2,15.0,N/A,,Clear,320,2013-12-05 20:35:00
2:55 PM,15.8,1.4,53,30.28,10.0,NW,10.4,-,N/A,,Clear,320,2013-12-05 20:55:00
3:15 PM,15.8,1.4,53,30.29,10.0,NW,10.4,-,N/A,,Clear,320,2013-12-05 21:15:00
3:35 PM,15.8,1.4,53,30.31,10.0,NNW,8.1,-,N/A,,Clear,330,2013-12-05 21:35:00
3:55 PM,15.8,1.4,53,30.32,10.0,NW,9.2,-,N/A,,Clear,320,2013-12-05 21:55:00
4:15 PM,15.8,1.4,53,30.32,10.0,NW,11.5,-,N/A,,Clear,320,2013-12-05 22:15:00
4:35 PM,15.8,1.4,53,30.34,10.0,NNW,10.4,-,N/A,,Clear,330,2013-12-05 22:35:00
4:55 PM,15.8,1.4,53,30.34,10.0,NNW,10.4,-,N/A,,Clear,330,2013-12-05 22:55:00
5:15 PM,15.8,1.4,53,30.34,10.0,NNW,5.8,-,N/A,,Clear,330,2013-12-05 23:15:00
5:35 PM,14.0,3.2,62,30.35,10.0,NNW,3.5,-,N/A,,Clear,330,2013-12-05 23:35:00
5:55 PM,14.0,3.2,62,30.35,10.0,North,5.8,-,N/A,,Clear,350,2013-12-05 23:55:00
6:15 PM,15.8,3.2,58,30.35,10.0,North,8.1,-,N/A,,Clear,350,2013-12-06 00:15:00
6:35 PM,15.8,3.2,58,30.36,10.0,North,6.9,-,N/A,,Clear,350,2013-12-06 00:35:00
6:55 PM,15.8,3.2,58,30.37,10.0,NNW,9.2,-,N/A,,Clear,340,2013-12-06 00:55:00
7:15 PM,15.8,1.4,53,30.37,10.0,NNW,10.4,-,N/A,,Clear,340,2013-12-06 01:15:00
7:35 PM,15.8,1.4,53,30.37,10.0,North,8.1,-,N/A,,Clear,350,2013-12-06 01:35:00
7:55 PM,14.0,1.4,57,30.37,10.0,NNW,11.5,19.6,N/A,,Clear,340,2013-12-06 01:55:00
8:15 PM,14.0,1.4,57,30.38,10.0,North,11.5,17.3,N/A,,Clear,350,2013-12-06 02:15:00
8:35 PM,14.0,-0.4,53,30.37,10.0,NNW,15.0,-,N/A,,Clear,340,2013-12-06 02:35:00
8:55 PM,14.0,-0.4,53,30.40,10.0,NNW,16.1,25.3,N/A,,Partly Cloudy,340,2013-12-06 02:55:00
9:15 PM,12.2,-2.2,53,30.41,10.0,NNW,15.0,23.0,N/A,,Scattered Clouds,330,2013-12-06 03:15:00
9:35 PM,12.2,-2.2,53,30.43,10.0,NNW,13.8,-,N/A,,Mostly Cloudy,330,2013-12-06 03:35:00
9:55 PM,12.2,-2.2,53,30.43,10.0,NNW,16.1,-,N/A,,Overcast,340,2013-12-06 03:55:00
10:15 PM,12.2,-2.2,53,30.43,10.0,NNW,13.8,21.9,N/A,,Overcast,340,2013-12-06 04:15:00
10:35 PM,10.4,-2.2,57,30.44,-9999.0,NNW,13.8,-,N/A,,Overcast,340,2013-12-06 04:35:00
10:55 PM,10.4,-2.2,57,30.43,10.0,North,12.7,-,N/A,,Overcast,350,2013-12-06 04:55:00
11:15 PM,10.4,-2.2,57,30.45,10.0,NNW,12.7,-,N/A,,Overcast,340,2013-12-06 05:15:00
11:35 PM,10.4,-2.2,57,30.44,10.0,NNW,10.4,-,N/A,,Overcast,340,2013-12-06 05:35:00
11:55 PM,10.4,-0.4,62,30.45,10.0,NNW,12.7,-,N/A,,Overcast,330,2013-12-06 05:55:00